Вернуться в каталог

STARLINK-34770

АктивенСвязьVLEO
NORAD 65036·PAYLOAD·🇺🇸 United States

Запущен Jul 30, 2025 с Cape Canaveral Space Force Station

Loading…

Ближайшие Пролёты (ближайшие 24 часа)

TLE

СвежийSource: CelesTrak SupGP

Эпоха: Sep 15, 2026, 02:39 UTC

1 65036C 25161X   26258.11090278  .00041549  00000+0  12278-2 0  2588
2 65036  53.1577 132.8316 0001274  84.9329 238.9972 15.34364020    12

Отслеживайте STARLINK-34770 в реальном времени с AllMySat

Download on the App Store